Regional Weather Roundup
Issued by NWS Grand Forks, ND

Home | Current Version | Previous Version | Graphics & Text | Print | Product List | Glossary On
Versions: 1 2 3 4 5 6 7 8 9 10 11 12 13 14 15 16 17 18 19 20 21 22 23 24 25 26 27 28 29 30 31 32 33 34 35 36 37 38 39 40 41 42 43 44 45 46 47 48 49 50
000
ASUS43 KFGF 211110
RWRFGF
PRAIRIE TO PINES  WEATHER ROUNDUP
NATIONAL WEATHER SERVICE EASTERN NORTH DAKOTA/GRAND FORKS ND
500 AM CST TUE NOV 21 2017

 **SATELLITE DATA USED TO AUGMENT SKY COVER AT AUTOMATED STATIONS**
 *****  WEATHER ACROSS EASTERN NORTH DAKOTA  *****

CITY           SKY/WX    TMP DP  RH WIND       PRES   REMARKS
GRAND FORKS    FLURRIES  16  10  77 NW26G38   29.97R WCI  -3
GRAND FRKS AFB FLURRIES  15   8  74 N20G32    29.99R WCI  -3
DEVILS LAKE    FAIR      12   7  80 NW24G30   30.04R WCI  -8
FARGO          CLOUDY    19  10  68 NW23G36   29.96R WCI   2
WAHPETON ARPT  NOT AVBL
$$

 ***** WEATHER ACROSS CENTRAL AND WESTERN NORTH DAKOTA  *****

CITY           SKY/WX    TMP DP  RH WIND       PRES   REMARKS
BISMARCK       MOCLDY    17   6  62 NW22      30.16R WCI   0
MINOT          FAIR       7   1  76 NW22G28   30.15R WCI -14
JAMESTOWN      FAIR      13   7  77 NW25G33   30.03R WCI  -7
MINOT AFB      FAIR       6   1  76 NW21G28   30.16R WCI -14
GARRISON         N/A      7   2  80 NW21      30.16R WCI -13
WILLISTON      FAIR       3  -2  79 W13       30.27R WCI -14
DICKINSON      FAIR       5   0  79 NW15      30.16R WCI -13
HETTINGER      FAIR       7  -1  70 NW17      30.18R WCI -12
$$

 *****  OTHER AIRPORT OBSERVATIONS IN OUR AREA  *****

CITY           SKY/WX    TMP DP  RH WIND       PRES   REMARKS
WALHALLA       FAIR      10   9  92 NW23G30   30.04R WCI -10
GRAFTON AIRPOR CLOUDY    14   9  79 NW25G31   30.02R WCI  -5
VALLEY CITY AR FLURRIES  14   9  79 NW24G32   30.01R WCI  -5
CANDO          FAIR      10   5  79 NW21G29   30.08R WCI  -9
CAVALIER APRT  CLOUDY    12   7  79 NW25G38   30.01R WCI  -8
GWINNER          N/A     16   9  73 NW25G33   29.99R WCI  -3
SHEYENNE NWR     N/A     18   9  66 NW18      29.95S WCI   2
ROLLA          FAIR       9   3  78 NW26G32   30.05R WCI -13
 ***** THE ABOVE OBSERVATIONS ARE NON NWS ARE NOT QUALITY
       CONTROLLED AND MAY MIS-REPORT RAIN FOR SNOW...
$$

  *****  WEATHER ACROSS NORTHERN MINNESOTA  *****

CITY           SKY/WX    TMP DP  RH WIND       PRES   REMARKS
FLAG ISLAND    MOCLDY    16   9  73 N28G33    29.81R WCI  -4
WARROAD        LGT SNOW  16   9  73 NW12G29   29.84R WCI   3
ROSEAU         CLOUDY    16  10  79 N20G33    29.86R WCI  -1
HALLOCK        CLOUDY    14   9  79 NW23G36   29.97R WCI  -5
THF RVR FALLS  FLURRIES  14  10  84 NW29G37   29.88R WCI  -7
BAUDETTE       LGT SNOW  17  10  74 N26G39    29.75R WCI  -2
WASKISH        FLURRIES  18  14  86 NW12G23   29.75R WCI   5
CROOKSTON      FLURRIES  16  10  79 N32G43    29.94R WCI  -5
STEPHEN NDAWN    N/A     12   9  85 N18         N/A  WCI  -5
GREENBUSH NDAW   N/A     12   7  79 NW22        N/A  WCI  -7
$$
  *****  WEATHER ACROSS CENTRAL AND WEST MINNESOTA  *****

CITY           SKY/WX    TMP DP  RH WIND       PRES   REMARKS
FOSSTON        LGT SNOW  12   9  85 NW25G32   29.85R WCI  -8
BEMIDJI        FLURRIES  15   9  77 NW24      29.77R WCI  -3
PARK RAPIDS    FLURRIES  16   8  71 NW22G39   29.78R WCI  -2
ELBOW LAKE     CLOUDY    19  11  68 W30G41    29.89R HAZE    WCI   0
WADENA         FLURRIES  16   9  73 NW29G37   29.81R WCI  -4
DETROIT LAKES  LGT SNOW  18  12  79 NW25G35   29.87R WCI  -1
MOORHEAD       MIX PCPN  18   9  68 NW26G33   29.95R WCI  -1
FERGUS FALLS   CLOUDY    19  10  68 NW30G38   29.92R WCI   0
MORRIS MN      CLOUDY    21  12  68 NW26G39   29.88R WCI   4
STAPLES        CLOUDY    18   7  62 NW28G39   29.79R WCI  -1
$$
  *****  WEATHER ELSEWHERE ACROSS MINNESOTA  *****

CITY           SKY/WX    TMP DP  RH WIND       PRES   REMARKS
DULUTH         FLURRIES  21  10  62 NW24G36   29.55R WCI   4
INTRNTL FALLS  LGT SNOW  18  11  74 NW21G29   29.67R WCI   1
ELY            LGT SNOW  19  14  79 W17G25    29.50R WCI   4
CLOQUET        FLURRIES  23  10  58 W20G38    29.59R WCI   8
WHEATON        CLOUDY    21  10  63 NW24G32   29.96R WCI   4
BRAINERD       MIX PCPN  22  10  60 NW18G36   29.73R WCI   7
HIBBING        MIX PCPN  18   9  68 NW25G32   29.61R WCI   0
ALEXANDRIA     CLOUDY    21  11  65 NW32G39   29.81R WCI   2
SAINT CLOUD    FLURRIES  26  16  65 NW22G32   29.75R WCI  12
MINNEAPOLIS    CLOUDY    28  14  55 NW24G36   29.74R WCI  14
$$

  *****  WEATHER ACROSS SOUTH DAKOTA  *****

CITY           SKY/WX    TMP DP  RH WIND       PRES   REMARKS
SIOUX FALLS    CLOUDY    32  16  51 NW22G32   29.93R WCI  19
BROOKINGS      FAIR      18   8  65 N29G39    29.93R WCI  -1
WATERTOWN      CLOUDY    17   8  67 NW31G38   29.95R WCI  -3
HURON          FAIR      17   5  59 N22G32    30.07R WCI   0
SISSETON         N/A     19   9  65 NW29G41   29.95R WCI   0
ABERDEEN       FAIR      15   7  70 NW16      30.07R WCI  -1
MITCHELL       FAIR      26  11  52 N28G35    30.04R WCI  10
PIERRE         FLURRIES  20   6  55 N28G37    30.12R WCI   2
MOBRIDGE       FAIR      15   5  64 NW24G36   30.09R WCI  -4
RAPID CITY     CLOUDY    30  23  75 NW30G38   30.12R WCI  15
$$

  *****  SOME WEATHER IN NEARBY STATES *****

CITY           SKY/WX    TMP DP  RH WIND       PRES   REMARKS
GLASGOW MT     FAIR       4  -3  73 NW12      30.32R WCI -12
GREAT FALLS MT CLOUDY    19  16  88 E5        30.21R WCI  12
CHEYENNE WY    CLOUDY    43  31  62 NW13G23   30.04R
SCOTTSBLUFF NE CLOUDY    38  24  57 N12       30.06R
OMAHA NE       CLOUDY    43  24  47 N26G35    29.86R
DES MOINES IA  CLOUDY    44  24  45 N14       29.79R
DAVENPORT IA   FAIR      40  31  70 W9        29.71R
CHICAGO IL     MOCLDY    43  31  62 SW17G24   29.67R
EAU CLAIRE WI  MOCLDY    33  20  58 W20G33    29.61R WCI  21
LA CROSSE WI   FAIR      39  15  37 NW20G26   29.64R
$$

  *****  SOME NATIONAL WEATHER *****

CITY           SKY/WX    TMP DP  RH WIND       PRES   REMARKS
LA GUARDIA NY  FAIR      44  30  57 SW15      30.12R
RALEIGH NC     FAIR      37  30  75 S3        30.24S
ATLANTA GA     CLOUDY    45  39  79 E8        30.13S
NEW ORLEANS LA MOCLDY    52  49  89 E5        30.02F
OKLAHOMA CITY  CLOUDY    43  33  68 S7        29.79R
ALBUQUERQUE NM MOCLDY    48   2  15 N21G31    30.14R
SALT LAKE CITY CLOUDY    44  37  76 CALM      30.23R
LOS ANGELES CA FAIR      61  50  67 SE3       30.02F
BOISE ID       CLOUDY    46  42  86 SE6       30.17R
SEATTLE WA     MOCLDY    39  38  96 N3        30.02S
$$

*** WEATHER ACROSS MANITOBA...SASKATCHEWAN AND ONTARIO ***
                ***ONTARIO***

CITY           SKY/WX    TMP DP  RH WIND       PRES   REMARKS
GERALDTON      LGT SNOW  23  21  93 NW16G29   29.14R BLWGSNOWWCI  10
THUNDER BAY    FLURRIES  28  21  74 W23G31    29.33R WCI  14
SIOUX LOOKOUT  FLURRIES  10   5  79 N14G23    29.61R WCI  -5
TORONTO        MOCLDY    41  30  65 S15G24    29.70F
BIG TROUT LK   FLURRIES  12   9  85 NW13G22   29.59R WCI  -3
PICKLE LAKE    LGT SNOW   7   3  85 N12G23    29.55  DRFTSNOWWCI  -9
DRYDEN         FLURRIES  12   9  85 N10G28    29.65R WCI  -1
KENORA         FLURRIES  10   5  79 N16G30    29.77R WCI  -7
$$
                *** MANITOBA***

CITY           SKY/WX    TMP DP  RH WIND       PRES   REMARKS
BRANDON        PTCLDY     7   0  72 NW13      30.11R WCI  -9
DAUPHIN        MOCLDY     9   3  78 W15       30.13R WCI  -8
ISLAND LAKE    FLURRIES  10   5  79 NW14G22   29.80R WCI  -5
PILOT MOUND      N/A      9   3  78 NW15        N/A  WCI  -8
THE PAS        CLOUDY     7   1  78 W17G23    30.10R WCI -12
THOMPSON       FLURRIES  12   7  79 NW17G24   29.89R WCI  -5
WINNIPEG       FLURRIES  12   7  79 N22       30.00R WCI  -7
LYNN LAKE      PTCLDY     3   1  92 NW13G21   30.01R WCI -14
CHURCHILL      LGT SNOW  16  14  93 NW24G37   29.62R VSB 3/4 WCI  -3
$$
                ***SASKATCHEWAN***

CITY           SKY/WX    TMP DP  RH WIND       PRES   REMARKS
ESTEVAN        FLURRIES   3  -2  78 NW18      30.21R WCI -17
KINDERSLEY     PTCLDY   -11 -17  77 W8        30.28F WCI -28
LLOYDMINSTER   FLURRIES   0  -4  85 W7        30.25S WCI -13
PRINCE ALBERT  FLURRIES   5   0  78 W8        30.29R WCI  -8
REGINA         FLURRIES   3  -2  78 W16       30.26R WCI -16
YORKTON        CLOUDY     9   3  78 NW14      30.18R WCI  -8
N. BATTLEFORD  FLURRIES   0  -6  78 W8        30.31S WCI -15
LA RONGE       PTCLDY     1  -4  78 W9        30.25R WCI -14
SASKATOON      FLURRIES   1  -4  78 W10       30.30S WCI -14
SWIFT CURRENT  CLEAR     -6 -11  77 W14       30.23S WCI -26
$$
NOTE: THESE ARE AUTOMATED STATIONS WITH LIMITED QUALITY CONTROL
      "FAIR" INDICATES FEW OR NO CLOUDS BELOW 12,000 FEET WITH NO
      SIGNIFICANT WEATHER AND/OR OBSTRUCTIONS TO VISIBILITY.
      SKY/WX - SKY CONDITION AND SIGNIFICANT WEATHER.
      TMP - AIR TEMPERATURE.    DP   - DEWPOINT TEMPERATURE.
      RH  - RELATIVE HUMIDITY.  PRES - PRESSURE.
      HX  - HEAT INDEX.         WCI  - WIND CHILL INDEX.
$



USA.gov is the U.S. government's official web portal to all federal, state and local government web resources and services.